TimePST,TemperatureF,Dew PointF,Humidity,Sea Level PressureIn,VisibilityMPH,Wind Direction,Wind SpeedMPH,Gust SpeedMPH,PrecipitationIn,Events,Conditions,WindDirDegrees,DateUTC
12:34 AM,55.4,51.8,88,30.15,7.0,Calm,Calm,-,N/A,,Overcast,0,2012-12-17 08:34:00
12:55 AM,55.0,51.1,86,30.18,9.0,NNE,3.5,-,N/A,,Overcast,30,2012-12-17 08:55:00
1:55 AM,55.0,51.1,86,30.19,7.0,Calm,Calm,-,N/A,,Overcast,0,2012-12-17 09:55:00
2:55 AM,55.0,52.0,89,30.19,5.0,ENE,3.5,-,N/A,,Overcast,70,2012-12-17 10:55:00
3:35 AM,53.6,51.8,94,30.15,6.0,Calm,Calm,-,N/A,,Overcast,0,2012-12-17 11:35:00
3:55 AM,54.0,52.0,93,30.17,6.0,Calm,Calm,-,N/A,,Overcast,0,2012-12-17 11:55:00
4:11 AM,55.4,51.8,88,30.14,7.0,Calm,Calm,-,N/A,,Overcast,0,2012-12-17 12:11:00
4:55 AM,55.0,51.1,86,30.18,10.0,ENE,3.5,-,N/A,,Overcast,60,2012-12-17 12:55:00
5:55 AM,55.0,52.0,89,30.18,9.0,ENE,4.6,-,N/A,,Overcast,70,2012-12-17 13:55:00
6:55 AM,54.0,51.1,90,30.19,10.0,Calm,Calm,-,N/A,,Overcast,0,2012-12-17 14:55:00
7:55 AM,55.9,52.0,87,30.18,10.0,East,5.8,-,N/A,,Overcast,80,2012-12-17 15:55:00
8:55 AM,57.9,52.0,81,30.19,9.0,ENE,5.8,-,N/A,,Overcast,60,2012-12-17 16:55:00
9:55 AM,61.0,52.0,72,30.19,10.0,Variable,4.6,-,N/A,,Overcast,0,2012-12-17 17:55:00
10:55 AM,62.1,50.0,65,30.17,10.0,SW,3.5,-,N/A,,Mostly Cloudy,220,2012-12-17 18:55:00
11:55 AM,62.1,48.9,62,30.12,10.0,Calm,Calm,-,N/A,,Mostly Cloudy,0,2012-12-17 19:55:00
12:55 PM,62.1,51.1,67,30.10,10.0,SSW,5.8,-,N/A,,Overcast,200,2012-12-17 20:55:00
1:55 PM,61.0,51.1,70,30.07,10.0,SSW,8.1,-,N/A,,Overcast,210,2012-12-17 21:55:00
4:55 PM,59.0,51.1,75,30.07,10.0,West,4.6,-,N/A,,Overcast,260,2012-12-18 00:55:00
5:55 PM,59.0,51.1,75,30.07,10.0,Calm,Calm,-,N/A,,Overcast,0,2012-12-18 01:55:00
6:55 PM,59.0,51.1,75,30.07,10.0,Calm,Calm,-,N/A,,Overcast,0,2012-12-18 02:55:00
7:29 PM,59.0,51.8,77,30.04,10.0,Calm,Calm,-,N/A,,Overcast,0,2012-12-18 03:29:00
7:55 PM,59.0,52.0,78,30.06,10.0,Calm,Calm,-,N/A,,Overcast,0,2012-12-18 03:55:00
8:30 PM,59.0,51.8,77,30.04,10.0,Calm,Calm,-,N/A,,Overcast,0,2012-12-18 04:30:00
8:55 PM,57.9,53.1,84,30.06,9.0,Calm,Calm,-,N/A,,Overcast,0,2012-12-18 04:55:00
9:43 PM,57.2,53.6,88,30.03,10.0,East,3.5,-,N/A,,Overcast,80,2012-12-18 05:43:00
9:55 PM,57.9,53.1,84,30.05,4.0,Calm,Calm,-,0.01,Rain,Light Rain,0,2012-12-18 05:55:00
10:02 PM,57.2,53.6,88,30.03,3.0,Calm,Calm,-,0.00,Rain,Light Rain,0,2012-12-18 06:02:00
10:39 PM,57.2,53.6,88,30.03,8.0,ENE,3.5,-,0.00,,Overcast,60,2012-12-18 06:39:00
10:55 PM,57.0,54.0,89,30.05,8.0,East,3.5,-,0.00,,Overcast,90,2012-12-18 06:55:00
11:55 PM,57.0,54.0,89,30.02,3.0,Calm,Calm,-,0.00,,Overcast,0,2012-12-18 07:55:00